BVX254B GVNP-EGKK

Flight info

Callsign BVX254B
Flight time N/A
Altitude 37000
Route AMDER1N CVS UN873 IPERA N873 LIMAL/N0486F390 T770 URQUI/N0487F380 Y422 GOMER N981 BIMBO/N0473F240 UN981 ASMAR UN741 DEMOS N728 KORUL DCT OTOFE/N0489F410 UN491 UPALO/N0488F400 UT510 DIKRO UM184 PILIP UN6 TELTU
Aircraft A359/H-SDE2E3GHIJ3J4J5LM1ORWXY/LB1D1

Departure

Time 2026-05-06 12:48
Airport Nelson Mandela International Airport (GVNP)

Arrival

Time N/A
Airport London Gatwick Airport (EGKK)
Time Latitude Longitude Altitude Speed Heading
2026-05-06 12:03 14.94566 -23.48520 347 ft 0 kts 292°
2026-05-06 12:34 14.94566 -23.48519 346 ft 2 kts 292°
2026-05-06 12:34 14.94560 -23.48494 352 ft 4 kts 264°
2026-05-06 12:34 14.94566 -23.48468 360 ft 4 kts 249°
2026-05-06 12:34 14.94571 -23.48454 361 ft 1 kts 252°
2026-05-06 12:35 14.94572 -23.48452 361 ft 0 kts 252°
2026-05-06 12:37 14.94572 -23.48453 361 ft 0 kts 252°
2026-05-06 12:40 14.94571 -23.48454 351 ft 0 kts 248°
2026-05-06 12:40 14.94558 -23.48459 360 ft 6 kts 205°
2026-05-06 12:40 14.94490 -23.48490 359 ft 13 kts 201°
2026-05-06 12:41 14.94402 -23.48522 354 ft 11 kts 186°
2026-05-06 12:41 14.94359 -23.48487 355 ft 7 kts 114°
2026-05-06 12:41 14.94356 -23.48480 356 ft 0 kts 110°
2026-05-06 12:42 14.94356 -23.48479 356 ft 1 kts 110°
2026-05-06 12:42 14.94343 -23.48446 358 ft 11 kts 111°
2026-05-06 12:42 14.94286 -23.48400 354 ft 11 kts 193°
2026-05-06 12:42 14.94199 -23.48436 355 ft 17 kts 201°
2026-05-06 12:43 14.94063 -23.48491 356 ft 24 kts 201°
2026-05-06 12:43 14.93904 -23.48557 353 ft 26 kts 202°
2026-05-06 12:43 14.93735 -23.48627 354 ft 26 kts 202°
2026-05-06 12:43 14.93557 -23.48701 347 ft 29 kts 201°
2026-05-06 12:44 14.93365 -23.48780 333 ft 30 kts 201°
2026-05-06 12:44 14.93258 -23.48854 333 ft 16 kts 218°
2026-05-06 12:44 14.93215 -23.48866 330 ft 1 kts 137°
2026-05-06 12:44 14.93212 -23.48859 331 ft 2 kts 119°
2026-05-06 12:45 14.93216 -23.48841 331 ft 1 kts 54°
2026-05-06 12:45 14.93231 -23.48835 331 ft 5 kts 24°
2026-05-06 12:45 14.93236 -23.48833 330 ft 0 kts 22°
2026-05-06 12:47 14.93303 -23.48805 333 ft 44 kts 22°
2026-05-06 12:47 14.93852 -23.48578 354 ft 126 kts 22°
2026-05-06 12:47 14.94844 -23.48164 721 ft 165 kts 21°
2026-05-06 12:48 14.95908 -23.47728 1698 ft 162 kts 21°
2026-05-06 12:48 14.96966 -23.47289 2595 ft 166 kts 21°
2026-05-06 12:48 14.98092 -23.46821 2871 ft 185 kts 21°
2026-05-06 12:48 14.99362 -23.46295 3037 ft 209 kts 21°
2026-05-06 12:49 15.00794 -23.45702 3217 ft 233 kts 20°
2026-05-06 12:49 15.02369 -23.45048 3514 ft 252 kts 20°
2026-05-06 12:49 15.04036 -23.44356 4138 ft 261 kts 20°
2026-05-06 12:49 15.05739 -23.43647 4748 ft 268 kts 20°
2026-05-06 12:50 15.07472 -23.42925 5338 ft 276 kts 20°
2026-05-06 12:50 15.09267 -23.42178 5967 ft 280 kts 19°
2026-05-06 12:50 15.11119 -23.41559 6582 ft 280 kts 10°
2026-05-06 12:50 15.13050 -23.41157 7145 ft 284 kts
2026-05-06 12:51 15.15016 -23.40792 7719 ft 289 kts
2026-05-06 12:51 15.17016 -23.40423 8284 ft 295 kts
2026-05-06 12:51 15.19051 -23.40045 8890 ft 299 kts
2026-05-06 12:51 15.21110 -23.39659 9554 ft 303 kts
2026-05-06 12:52 15.23213 -23.39263 10089 ft 311 kts
2026-05-06 12:52 15.25389 -23.38854 10435 ft 326 kts
2026-05-06 12:52 15.27679 -23.38423 10682 ft 343 kts
2026-05-06 12:52 15.30085 -23.37971 10903 ft 359 kts
2026-05-06 12:53 15.32594 -23.37497 11143 ft 373 kts
2026-05-06 12:53 15.35199 -23.37006 11366 ft 387 kts
2026-05-06 12:53 15.37841 -23.36507 11774 ft 392 kts
2026-05-06 12:53 15.40534 -23.35997 12308 ft 395 kts
2026-05-06 12:54 15.43246 -23.35484 12831 ft 397 kts
2026-05-06 12:54 15.45974 -23.34968 13372 ft 400 kts
2026-05-06 12:54 15.48725 -23.34448 13863 ft 403 kts
2026-05-06 12:54 15.51488 -23.33926 14342 ft 405 kts
2026-05-06 12:55 15.54272 -23.33399 14803 ft 408 kts
2026-05-06 12:55 15.57086 -23.32867 15270 ft 410 kts
2026-05-06 12:55 15.59888 -23.32217 15730 ft 414 kts 13°
2026-05-06 12:55 15.62661 -23.31361 16197 ft 417 kts 15°
2026-05-06 12:56 15.65440 -23.30456 16654 ft 420 kts 15°
2026-05-06 12:56 15.68239 -23.29542 17115 ft 422 kts 15°
2026-05-06 12:56 15.71047 -23.28627 17580 ft 425 kts 15°
2026-05-06 12:56 15.73879 -23.27704 18038 ft 427 kts 15°
2026-05-06 12:57 15.76689 -23.26790 18436 ft 431 kts 15°
2026-05-06 12:57 15.79557 -23.25857 18838 ft 433 kts 15°
2026-05-06 12:57 15.82436 -23.24921 19247 ft 435 kts 15°
2026-05-06 12:57 15.85334 -23.23978 19646 ft 437 kts 15°
2026-05-06 12:58 15.88253 -23.23029 20068 ft 440 kts 15°
2026-05-06 12:58 15.91182 -23.22076 20483 ft 442 kts 15°
2026-05-06 12:58 15.94127 -23.21117 20893 ft 445 kts 15°
2026-05-06 12:58 15.97089 -23.20152 21302 ft 447 kts 14°
2026-05-06 12:59 16.00068 -23.19182 21716 ft 449 kts 14°
2026-05-06 12:59 16.03059 -23.18207 22156 ft 452 kts 14°
2026-05-06 12:59 16.06073 -23.17225 22637 ft 455 kts 14°
2026-05-06 12:59 16.09099 -23.16239 23140 ft 457 kts 14°
2026-05-06 13:00 16.12147 -23.15245 23567 ft 461 kts 14°
2026-05-06 13:00 16.15217 -23.14243 23895 ft 463 kts 14°
2026-05-06 13:00 16.18300 -23.13237 24252 ft 466 kts 14°
2026-05-06 13:00 16.21410 -23.12221 24625 ft 471 kts 14°
2026-05-06 13:01 16.24547 -23.11197 25046 ft 473 kts 14°
2026-05-06 13:01 16.27699 -23.10167 25470 ft 476 kts 13°
2026-05-06 13:01 16.30868 -23.09132 25841 ft 480 kts 13°
2026-05-06 13:01 16.34060 -23.08089 26253 ft 483 kts 13°
2026-05-06 13:02 16.37234 -23.07052 26633 ft 486 kts 13°
2026-05-06 13:02 16.40519 -23.05977 27006 ft 490 kts 13°
2026-05-06 13:02 16.43766 -23.04913 27457 ft 490 kts 13°
2026-05-06 13:02 16.46986 -23.03859 27880 ft 492 kts 13°
2026-05-06 13:03 16.50263 -23.02786 28236 ft 495 kts 13°
2026-05-06 13:03 16.53561 -23.01706 28605 ft 499 kts 13°
2026-05-06 13:03 16.56885 -23.00616 28966 ft 502 kts 13°
2026-05-06 13:03 16.60220 -22.99523 29300 ft 504 kts 13°
2026-05-06 13:04 16.63573 -22.98423 29602 ft 507 kts 13°
2026-05-06 13:04 16.66953 -22.97314 29904 ft 509 kts 13°
2026-05-06 13:04 16.70342 -22.96202 30180 ft 512 kts 12°
2026-05-06 13:04 16.73705 -22.94913 30384 ft 521 kts 19°
2026-05-06 13:05 16.76965 -22.93185 30611 ft 528 kts 24°
2026-05-06 13:05 16.80196 -22.91300 30864 ft 534 kts 25°
2026-05-06 13:05 16.83425 -22.89334 31162 ft 538 kts 26°
2026-05-06 13:05 16.86646 -22.87342 31439 ft 539 kts 25°
2026-05-06 13:06 16.89891 -22.85334 31652 ft 542 kts 25°
2026-05-06 13:06 16.93106 -22.83354 31888 ft 543 kts 25°
2026-05-06 13:06 16.96412 -22.81329 32134 ft 545 kts 25°
2026-05-06 13:06 16.99651 -22.79353 32329 ft 547 kts 24°
2026-05-06 13:07 17.02940 -22.77352 32565 ft 548 kts 24°
2026-05-06 13:07 17.06246 -22.75344 32753 ft 551 kts 24°
2026-05-06 13:07 17.09563 -22.73328 33036 ft 551 kts 24°
2026-05-06 13:07 17.12863 -22.71319 33498 ft 547 kts 24°
2026-05-06 13:08 17.16070 -22.69365 33727 ft 549 kts 23°
2026-05-06 13:08 17.18948 -22.67615 33859 ft 551 kts 23°
2026-05-06 13:08 17.22266 -22.65596 34068 ft 552 kts 23°
2026-05-06 13:08 17.25590 -22.63571 34286 ft 553 kts 23°
2026-05-06 13:09 17.28917 -22.61541 34509 ft 553 kts 23°
2026-05-06 13:09 17.32241 -22.59513 34738 ft 553 kts 23°
2026-05-06 13:09 17.35573 -22.57479 34949 ft 554 kts 23°
2026-05-06 13:09 17.38898 -22.55448 35160 ft 554 kts 23°
2026-05-06 13:10 17.42228 -22.53414 35370 ft 554 kts 23°
2026-05-06 13:10 17.45560 -22.51378 35644 ft 553 kts 23°
2026-05-06 13:10 17.48874 -22.49350 35960 ft 551 kts 23°
2026-05-06 13:10 17.52188 -22.47324 36108 ft 552 kts 23°
2026-05-06 13:11 17.55514 -22.45291 36252 ft 554 kts 23°
2026-05-06 13:11 17.58852 -22.43251 36353 ft 556 kts 23°
2026-05-06 13:11 17.62160 -22.41227 36476 ft 557 kts 23°
2026-05-06 13:11 17.65505 -22.39178 36668 ft 557 kts 23°
2026-05-06 13:12 17.68856 -22.37124 36821 ft 558 kts 23°
2026-05-06 13:12 17.72213 -22.35065 36990 ft 559 kts 23°
2026-05-06 13:12 17.75575 -22.33004 37038 ft 562 kts 23°
2026-05-06 13:13 17.82342 -22.28852 37041 ft 562 kts 23°
2026-05-06 13:13 17.89085 -22.24705 37042 ft 561 kts 23°
2026-05-06 13:14 17.95820 -22.20564 37043 ft 561 kts 23°
2026-05-06 13:14 18.02551 -22.16422 37042 ft 561 kts 23°
2026-05-06 13:15 18.09280 -22.12278 37042 ft 561 kts 23°
2026-05-06 13:15 18.15969 -22.08155 37051 ft 560 kts 23°
2026-05-06 13:16 18.22689 -22.04006 37041 ft 559 kts 23°
2026-05-06 13:16 18.29388 -21.99870 37038 ft 558 kts 23°
2026-05-06 13:17 18.36087 -21.95729 37043 ft 558 kts 23°
2026-05-06 13:17 18.42757 -21.91603 37042 ft 558 kts 23°
2026-05-06 13:18 18.49454 -21.87456 37050 ft 558 kts 24°
2026-05-06 13:18 18.56120 -21.83320 37043 ft 554 kts 24°
2026-05-06 13:19 18.62755 -21.79204 37037 ft 554 kts 24°
2026-05-06 13:19 18.69425 -21.75066 37039 ft 556 kts 24°
2026-05-06 13:20 18.76108 -21.70913 37040 ft 557 kts 24°
2026-05-06 13:20 18.82788 -21.66756 37071 ft 557 kts 24°
2026-05-06 13:21 18.89372 -21.62651 37040 ft 550 kts 24°
2026-05-06 13:21 18.95953 -21.58547 37040 ft 549 kts 24°
2026-05-06 13:22 19.02534 -21.54444 37039 ft 549 kts 24°
2026-05-06 13:22 19.09113 -21.50338 37037 ft 549 kts 24°
2026-05-06 13:23 19.15695 -21.46224 37032 ft 549 kts 24°
2026-05-06 13:23 19.22280 -21.42104 37039 ft 548 kts 24°
2026-05-06 13:24 19.28789 -21.38027 37038 ft 546 kts 24°
2026-05-06 13:24 19.35328 -21.33929 37039 ft 546 kts 24°
2026-05-06 13:25 19.41870 -21.29826 37036 ft 546 kts 24°
2026-05-06 13:25 19.48409 -21.25720 37037 ft 546 kts 24°
2026-05-06 13:26 19.54942 -21.21612 37041 ft 544 kts 24°
2026-05-06 13:26 19.61435 -21.17525 37037 ft 542 kts 24°
2026-05-06 13:27 19.67919 -21.13443 37038 ft 541 kts 24°
2026-05-06 13:27 19.73312 -21.10046 37036 ft 544 kts 24°
2026-05-06 13:28 19.80897 -21.05262 37030 ft 545 kts 24°
2026-05-06 13:28 19.87419 -21.01142 37040 ft 545 kts 24°
2026-05-06 13:29 19.92862 -20.97699 37030 ft 543 kts 24°
2026-05-06 13:29 19.99304 -20.93622 37029 ft 542 kts 24°
2026-05-06 13:30 20.05785 -20.89519 37025 ft 542 kts 24°
2026-05-06 13:30 20.12265 -20.85411 37025 ft 542 kts 24°
2026-05-06 13:31 20.18746 -20.81299 37025 ft 542 kts 24°
2026-05-06 13:31 20.25234 -20.77179 37027 ft 545 kts 24°
2026-05-06 13:32 20.31759 -20.73032 37028 ft 546 kts 24°
2026-05-06 13:32 20.38283 -20.68879 37025 ft 546 kts 24°
2026-05-06 13:33 20.44806 -20.64715 37021 ft 546 kts 25°
2026-05-06 13:33 20.51328 -20.60543 37026 ft 546 kts 25°
2026-05-06 13:34 20.57837 -20.56377 37027 ft 545 kts 25°
2026-05-06 13:34 20.64336 -20.52214 37027 ft 544 kts 25°
2026-05-06 13:35 20.70830 -20.48051 37023 ft 544 kts 25°
2026-05-06 13:35 20.77288 -20.43909 37028 ft 546 kts 25°
2026-05-06 13:36 20.83818 -20.39716 37026 ft 548 kts 25°
2026-05-06 13:36 20.90347 -20.35517 37028 ft 547 kts 25°
2026-05-06 13:37 20.96871 -20.31316 37025 ft 547 kts 25°
2026-05-06 13:37 21.03389 -20.27116 37026 ft 547 kts 25°
2026-05-06 13:38 21.09908 -20.22911 37028 ft 547 kts 25°
2026-05-06 13:38 21.16423 -20.18705 37023 ft 547 kts 25°
2026-05-06 13:39 21.22940 -20.14493 37033 ft 546 kts 25°
2026-05-06 13:39 21.29448 -20.10282 37027 ft 547 kts 25°
2026-05-06 13:40 21.35930 -20.06085 37024 ft 548 kts 25°
2026-05-06 13:40 21.42456 -20.01853 37023 ft 548 kts 25°
2026-05-06 13:41 21.48989 -19.97613 37023 ft 548 kts 25°
2026-05-06 13:41 21.55523 -19.93367 37055 ft 549 kts 25°
2026-05-06 13:42 21.62039 -19.89127 37032 ft 545 kts 25°
2026-05-06 13:42 21.68535 -19.84897 37013 ft 545 kts 25°
2026-05-06 13:43 21.75016 -19.80674 37014 ft 545 kts 25°
2026-05-06 13:43 21.81466 -19.76467 37021 ft 547 kts 25°
2026-05-06 13:44 21.87986 -19.72209 37014 ft 549 kts 25°
2026-05-06 13:44 21.94506 -19.67944 37023 ft 547 kts 25°
2026-05-06 13:45 22.01017 -19.63681 37018 ft 547 kts 25°
2026-05-06 13:45 22.10769 -19.57289 37020 ft 547 kts 25°
2026-05-06 13:46 22.17276 -19.53018 37023 ft 547 kts 25°
2026-05-06 13:46 22.23779 -19.48743 37040 ft 547 kts 25°
2026-05-06 13:47 22.30276 -19.44467 37020 ft 547 kts 25°
2026-05-06 13:47 22.36792 -19.40176 37023 ft 550 kts 25°
2026-05-06 13:48 22.43291 -19.35891 37020 ft 550 kts 25°
2026-05-06 13:48 22.49830 -19.31572 37021 ft 550 kts 25°
2026-05-06 13:49 22.56372 -19.27248 37072 ft 551 kts 25°
2026-05-06 13:49 22.62898 -19.22929 37018 ft 549 kts 25°
2026-05-06 13:50 22.69411 -19.18616 37020 ft 549 kts 25°
2026-05-06 13:50 22.75936 -19.14290 37021 ft 549 kts 25°
2026-05-06 13:51 22.82407 -19.09994 37015 ft 550 kts 25°
2026-05-06 13:51 22.88958 -19.05643 37065 ft 553 kts 25°
2026-05-06 13:52 22.95527 -19.01272 37017 ft 553 kts 26°
2026-05-06 13:52 23.02087 -18.96900 37018 ft 553 kts 26°
2026-05-06 13:53 23.08656 -18.92518 37018 ft 553 kts 26°
2026-05-06 13:53 23.15181 -18.88161 37018 ft 553 kts 26°
2026-05-06 13:54 23.21737 -18.83778 37015 ft 553 kts 26°
2026-05-06 13:54 23.28287 -18.79392 37017 ft 549 kts 26°
2026-05-06 13:55 23.34775 -18.75043 37019 ft 547 kts 26°
2026-05-06 13:55 23.41254 -18.70698 37015 ft 547 kts 26°
2026-05-06 13:56 23.47731 -18.66350 37016 ft 547 kts 26°
2026-05-06 13:56 23.54213 -18.61992 37015 ft 547 kts 26°
2026-05-06 13:57 23.60689 -18.57632 37015 ft 547 kts 26°
2026-05-06 13:57 23.67116 -18.53300 37018 ft 547 kts 26°
2026-05-06 13:58 23.73599 -18.48926 37017 ft 547 kts 26°
2026-05-06 13:58 23.80067 -18.44556 37022 ft 546 kts 26°
2026-05-06 13:59 23.86551 -18.40173 37019 ft 551 kts 26°
2026-05-06 13:59 23.93067 -18.35761 37016 ft 549 kts 26°
2026-05-06 14:00 23.99545 -18.31364 37017 ft 546 kts 26°
2026-05-06 14:00 24.05996 -18.26986 37015 ft 546 kts 26°
2026-05-06 14:01 24.12448 -18.22602 37019 ft 546 kts 26°
2026-05-06 14:01 24.18865 -18.18236 37014 ft 546 kts 26°
2026-05-06 14:02 24.25308 -18.13846 37018 ft 542 kts 27°
2026-05-06 14:02 24.31654 -18.09512 37014 ft 535 kts 27°
2026-05-06 14:03 24.37998 -18.05184 37017 ft 540 kts 27°
2026-05-06 14:03 24.44408 -18.00807 37016 ft 544 kts 27°
2026-05-06 14:04 24.50826 -17.96413 37015 ft 543 kts 27°
2026-05-06 14:04 24.57239 -17.92015 37023 ft 542 kts 27°
2026-05-06 14:05 24.63554 -17.87677 37015 ft 536 kts 27°
2026-05-06 14:05 24.69880 -17.83331 37010 ft 535 kts 27°
2026-05-06 14:06 24.76198 -17.78987 37020 ft 535 kts 27°
2026-05-06 14:06 24.82519 -17.74635 37012 ft 535 kts 27°
2026-05-06 14:07 24.88852 -17.70271 37042 ft 540 kts 27°
2026-05-06 14:07 24.95201 -17.65887 37012 ft 536 kts 27°
2026-05-06 14:08 25.01774 -17.62188 37012 ft 524 kts 12°
2026-05-06 14:08 25.08685 -17.59848 37011 ft 522 kts 10°
2026-05-06 14:09 25.15680 -17.57729 37009 ft 521 kts
2026-05-06 14:09 25.22683 -17.55635 37015 ft 519 kts 10°
2026-05-06 14:10 25.29608 -17.53534 37018 ft 514 kts 10°